EW6271 Weather Reports


time (UTC)temp
C
wind
direction
speed
KPH
gust
KPH
rain 1hr
cm
rain 24hr
cm
rain mn
cm
humidity
%
barometer
mb
20260507082009 13 92 1.6 11.3 0.00 0.00 0.00 57 1011.3
20260507081506 13 153 3.2 11.3 0.00 0.00 0.00 56 1011.2
20260507081004 13 78 3.2 9.7 0.00 0.00 0.00 56 1011.1
20260507080604 14 71 3.2 9.7 0.00 0.00 0.00 57 1011.1
20260507080005 14 122 3.2 9.7 0.00 0.00 0.00 55 1011.1
20260507075504 14 109 3.2 9.7 0.00 0.00 0.00 55 1011.2
20260507075004 15 80 4.8 11.3 0.00 0.00 0.00 54 1011.3
20260507074504 15 268 1.6 11.3 0.00 0.00 0.00 54 1011.2
20260507074005 15 234 1.6 12.9 0.00 0.00 0.00 54 1011.1
20260507073509 15 154 1.6 9.7 0.00 0.00 0.00 53 1011.1
20260507073137 15 94 1.6 11.3 0.00 0.00 0.00 53 1011.2
20260507072604 15 107 4.8 11.3 0.00 0.00 0.00 52 1011.1
20260507072105 15 116 1.6 11.3 0.00 0.00 0.00 53 1011.0
20260507071004 15 124 3.2 9.7 0.00 0.00 0.00 52 1010.9
20260507070510 16 41 1.6 9.7 0.00 0.00 0.00 52 1010.8
20260507070009 16 204 1.6 12.9 0.00 0.00 0.00 52 1010.7
20260507065605 16 273 1.6 12.9 0.00 0.00 0.00 52 1010.7
20260507065104 16 143 3.2 12.9 0.00 0.00 0.00 51 1010.7
20260507064508 16 205 4.8 12.9 0.00 0.00 0.00 50 1010.7
20260507064011 16 112 3.2 11.3 0.00 0.00 0.00 51 1010.6
20260507063607 16 191 1.6 11.3 0.00 0.00 0.00 52 1010.6
20260507063120 16 198 3.2 12.9 0.00 0.00 0.00 52 1010.5
20260507062508 16 189 3.2 11.3 0.00 0.00 0.00 51 1010.4
20260507062008 16 118 3.2 12.9 0.00 0.00 0.00 50 1010.4
20260507061606 16 143 4.8 12.9 0.00 0.00 0.00 50 1010.2
20260507061008 16 107 3.2 14.5 0.00 0.00 0.00 51 1010.3
20260507060504 16 211 4.8 14.5 0.00 0.00 0.00 51 1010.3
20260507060104 16 171 3.2 11.3 0.00 0.00 0.00 52 1010.4
20260507055509 16 257 3.2 16.1 0.00 0.00 0.00 53 1010.4
20260507055008 16 167 6.4 16.1 0.00 0.00 0.00 54 1010.4
20260507054605 16 163 4.8 14.5 0.00 0.00 0.00 54 1010.5
20260507054005 16 136 6.4 14.5 0.00 0.00 0.00 56 1010.5
20260507053604 16 188 4.8 12.9 0.00 0.00 0.00 57 1010.5
20260507053006 16 82 3.2 9.7 0.00 0.00 0.00 58 1010.5
20260507052606 17 197 3.2 8.0 0.00 0.00 0.00 57 1010.4
20260507052010 16 119 3.2 6.4 0.00 0.00 0.00 57 1010.3
20260507051505 16 135 1.6 8.0 0.00 0.00 0.00 56 1010.3
20260507051005 17 247 1.6 6.4 0.00 0.00 0.00 56 1010.3
20260507050006 17 206 3.2 16.1 0.00 0.00 0.00 54 1010.2
20260507045606 17 88 3.2 16.1 0.00 0.00 0.00 52 1010.2
20260507045005 17 208 3.2 11.3 0.00 0.00 0.00 52 1010.2
20260507044508 18 134 4.8 14.5 0.00 0.00 0.00 52 1010.3
20260507044104 18 115 6.4 14.5 0.00 0.00 0.00 52 1010.2
20260507043005 18 227 3.2 16.1 0.00 0.00 0.00 52 1010.4
20260507042510 18 146 4.8 16.1 0.00 0.00 0.00 51 1010.4
20260507042009 18 184 4.8 12.9 0.00 0.00 0.00 53 1010.3
20260507041509 18 170 4.8 19.3 0.00 0.00 0.00 53 1010.3
20260507041005 18 133 4.8 19.3 0.00 0.00 0.00 53 1010.2
20260507040605 18 215 3.2 11.3 0.00 0.00 0.00 54 1010.2
20260507040109 18 202 4.8 14.5 0.00 0.00 0.00 53 1010.3
20260507035510 17 235 4.8 14.5 0.00 0.00 0.00 55 1010.3
20260507035008 17 360 3.2 11.3 0.00 0.00 0.00 57 1010.2
20260507034622 16 168 4.8 11.3 0.00 0.00 0.00 60 1010.2
20260507034006 15 178 1.6 8.0 0.00 0.00 0.00 70 1010.1
20260507033606 15 126 0.0 4.8 0.00 0.00 0.00 73 1010.1
20260507033009 15 52 0.0 3.2 0.00 0.00 0.00 73 1010.2
20260507032504 15 88 0.0 1.6 0.00 0.00 0.00 74 1010.2
20260507032003 15 88 0.0 1.6 0.00 0.00 0.00 74 1010.2
20260507031504 16 88 0.0 0.0 0.00 0.00 0.00 73 1010.1
20260507031106 16 93 0.0 0.0 0.00 0.00 0.00 72 1010.1
20260507030606 16 90 0.0 0.0 0.00 0.00 0.00 71 1010.1
20260507030106 16 89 0.0 0.0 0.00 0.00 0.00 71 1010.1
20260507025504 16 89 0.0 0.0 0.00 0.00 0.00 70 1010.2
20260507025104 17 88 0.0 0.0 0.00 0.00 0.00 69 1010.1
20260507024606 17 88 0.0 0.0 0.00 0.00 0.00 68 1010.1
20260507024008 17 88 0.0 0.0 0.00 0.00 0.00 68 1010.1
20260507023606 17 88 0.0 0.0 0.00 0.00 0.00 67 1010.2
20260507023004 17 88 0.0 0.0 0.00 0.00 0.00 66 1010.2
20260507022606 17 88 0.0 0.0 0.00 0.00 0.00 66 1010.2
20260507022005 18 89 0.0 0.0 0.00 0.00 0.00 64 1010.2
20260507021609 18 90 0.0 0.0 0.00 0.00 0.00 63 1010.2
20260507021106 18 108 0.0 1.6 0.00 0.00 0.00 62 1010.3
20260507020505 18 88 0.0 1.6 0.00 0.00 0.00 63 1010.3
20260507020105 18 88 0.0 1.6 0.00 0.00 0.00 61 1010.3
20260507015603 18 88 0.0 1.6 0.00 0.00 0.00 61 1010.3
20260507014604 19 88 0.0 1.6 0.00 0.00 0.00 58 1010.5
20260507014105 19 88 0.0 1.6 0.00 0.00 0.00 59 1010.5
20260507013508 20 88 0.0 3.2 0.00 0.00 0.00 55 1010.5
20260507013010 20 88 0.0 4.8 0.00 0.00 0.00 54 1010.5
20260507012504 20 88 1.6 4.8 0.00 0.00 0.00 52 1010.5
20260507012005 20 84 1.6 3.2 0.00 0.00 0.00 50 1010.5
20260507011605 20 171 0.0 4.8 0.00 0.00 0.00 52 1010.5
20260507011006 21 103 1.6 6.4 0.00 0.00 0.00 46 1010.5
20260507010601 21 121 1.6 6.4 0.00 0.00 0.00 46 1010.5
20260507010005 21 121 3.2 14.5 0.00 0.00 0.00 46 1010.6
20260507005509 21 102 1.6 14.5 0.00 0.00 0.00 47 1010.6
20260507005101 21 201 1.6 14.5 0.00 0.00 0.00 46 1010.7
20260507004601 21 121 3.2 14.5 0.00 0.00 0.00 45 1010.7
20260507004005 21 194 1.6 11.3 0.00 0.00 0.00 46 1010.7
20260507003502 21 188 3.2 11.3 0.00 0.00 0.00 44 1010.6
20260507003002 21 148 3.2 8.0 0.00 0.00 0.00 45 1010.8
20260507002501 21 125 1.6 8.0 0.00 0.00 0.00 45 1010.7
20260507002002 21 182 3.2 9.7 0.00 0.00 0.00 45 1010.7
20260507001501 21 173 3.2 11.3 0.00 0.00 0.00 44 1010.7
20260507001102 21 89 3.2 11.3 0.00 0.00 0.00 44 1010.8
20260507000601 21 226 3.2 8.0 0.00 0.00 0.00 46 1010.7
20260507000101 22 121 3.2 14.5 0.00 0.00 0.00 44 1010.7
20260506235601 22 78 3.2 14.5 0.00 0.00 0.00 44 1010.7
20260506235004 22 173 3.2 14.5 0.00 0.00 0.00 43 1010.6
20260506234508 22 189 4.8 14.5 0.00 0.00 0.00 44 1010.7
20260506234010 22 169 4.8 12.9 0.00 0.00 0.00 43 1010.7
20260506233502 22 134 6.4 14.5 0.00 0.00 0.00 44 1010.6
20260506233006 22 162 4.8 14.5 0.00 0.00 0.00 45 1010.6
20260506232601 22 194 4.8 16.1 0.00 0.00 0.00 45 1010.7
20260506232100 22 121 8.0 17.7 0.00 0.00 0.00 43 1010.7
20260506231602 22 148 4.8 17.7 0.00 0.00 0.00 42 1010.7
20260506231002 22 53 8.0 14.5 0.00 0.00 0.00 40 1010.7
20260506230601 22 80 6.4 16.1 0.00 0.00 0.00 41 1010.8
20260506230001 22 186 6.4 17.7 0.00 0.00 0.00 43 1010.8
20260506225505 22 135 4.8 11.3 0.00 0.00 0.00 43 1010.9
20260506225001 23 220 6.4 12.9 0.00 0.00 0.00 42 1010.8
20260506224620 23 196 6.4 11.3 0.00 0.00 0.00 43 1010.8
20260506224101 22 157 6.4 11.3 0.00 0.00 0.00 42 1010.9
20260506223502 22 82 4.8 12.9 0.00 0.00 0.00 43 1011.0
20260506223006 22 71 4.8 12.9 0.00 0.00 0.00 43 1011.0
20260506222506 22 103 4.8 12.9 0.00 0.00 0.00 44 1011.0
20260506222001 22 184 3.2 9.7 0.00 0.00 0.00 41 1011.1
20260506221506 22 119 4.8 12.9 0.00 0.00 0.00 42 1011.2
20260506221005 22 201 8.0 12.9 0.00 0.00 0.00 42 1011.2
20260506220601 22 216 6.4 14.5 0.00 0.00 0.00 42 1011.3
20260506220002 22 169 6.4 14.5 0.00 0.00 0.00 39 1011.4
20260506215602 22 183 6.4 14.5 0.00 0.00 0.00 40 1011.4
20260506215002 23 108 4.8 12.9 0.00 0.00 0.00 39 1011.6
20260506214102 22 99 6.4 19.3 0.00 0.00 0.00 41 1011.7
20260506213606 22 100 8.0 19.3 0.00 0.00 0.00 43 1011.6
20260506213101 22 77 6.4 11.3 0.00 0.00 0.00 43 1011.8
20260506212601 22 123 4.8 14.5 0.00 0.00 0.00 41 1011.7
20260506212006 23 103 6.4 17.7 0.00 0.00 0.00 41 1011.8
20260506211505 22 144 6.4 19.3 0.00 0.00 0.00 42 1011.6
20260506211002 22 76 6.4 19.3 0.00 0.00 0.00 45 1011.8
20260506210502 22 55 3.2 11.3 0.00 0.00 0.00 42 1011.9
20260506210004 22 197 6.4 19.3 0.00 0.00 0.00 42 1011.9
20260506205501 22 69 6.4 19.3 0.00 0.00 0.00 42 1011.9
20260506205002 23 26 4.8 12.9 0.00 0.00 0.00 42 1011.8
20260506204602 23 142 4.8 12.9 0.00 0.00 0.00 43 1011.9
20260506204005 22 117 3.2 12.9 0.00 0.00 0.00 45 1011.8
20260506203504 23 59 4.8 11.3 0.00 0.00 0.00 46 1011.9
20260506203002 22 132 4.8 16.1 0.00 0.00 0.00 42 1012.0
20260506202505 22 80 3.2 16.1 0.00 0.00 0.00 44 1012.1
20260506202003 22 215 9.7 16.1 0.00 0.00 0.00 41 1012.1
20260506201502 22 201 8.0 16.1 0.00 0.00 0.00 43 1012.2
20260506201005 22 92 3.2 11.3 0.00 0.00 0.00 41 1012.3
20260506200501 22 326 4.8 16.1 0.00 0.00 0.00 43 1012.2
20260506200007 22 183 4.8 16.1 0.00 0.00 0.00 42 1012.2
20260506195508 22 48 8.0 16.1 0.00 0.00 0.00 47 1012.4
20260506195101 22 94 4.8 12.9 0.00 0.00 0.00 44 1012.4
20260506194502 22 34 3.2 14.5 0.00 0.00 0.00 47 1012.3
20260506194008 22 97 3.2 14.5 0.00 0.00 0.00 44 1012.3
20260506193501 22 190 8.0 14.5 0.00 0.00 0.00 41 1012.4
20260506193005 21 128 4.8 11.3 0.00 0.00 0.00 42 1012.5
20260506192601 22 71 6.4 16.1 0.00 0.00 0.00 44 1012.5
20260506192102 21 71 3.2 16.1 0.00 0.00 0.00 46 1012.5
20260506191601 21 33 4.8 14.5 0.00 0.00 0.00 47 1012.6
20260506191002 21 201 4.8 14.5 0.00 0.00 0.00 46 1012.6
20260506190510 21 52 3.2 11.3 0.00 0.00 0.00 48 1012.5
20260506190002 22 12 4.8 16.1 0.00 0.00 0.00 47 1012.6
20260506185505 21 263 6.4 16.1 0.00 0.00 0.00 46 1012.7
20260506185006 21 192 3.2 16.1 0.00 0.00 0.00 47 1012.8
20260506184506 20 140 8.0 16.1 0.00 0.00 0.00 45 1012.9
20260506184101 20 136 4.8 11.3 0.00 0.00 0.00 47 1012.9
20260506183504 20 175 4.8 11.3 0.00 0.00 0.00 46 1013.0
20260506183007 20 105 3.2 8.0 0.00 0.00 0.00 47 1013.1
20260506182505 19 180 3.2 9.7 0.00 0.00 0.00 47 1013.2
20260506182101 20 202 3.2 11.3 0.00 0.00 0.00 46 1013.3
20260506181626 18 163 4.8 11.3 0.00 0.00 0.00 46 1013.2
20260506181103 20 182 3.2 8.0 0.00 0.00 0.00 42 1013.2
20260506180502 18 188 3.2 12.9 0.00 0.00 0.00 46 1013.3
20260506180001 18 165 6.4 14.5 0.00 0.00 0.00 43 1013.3
20260506175504 20 154 1.6 4.8 0.00 0.00 0.00 43 1013.3
20260506175001 19 221 1.6 9.7 0.00 0.00 0.00 44 1013.4
20260506174603 18 254 4.8 9.7 0.00 0.00 0.00 44 1013.4
20260506174101 18 97 3.2 9.7 0.00 0.00 0.00 47 1013.4
20260506173504 18 194 3.2 8.0 0.00 0.00 0.00 46 1013.5
20260506173131 18 168 4.8 8.0 0.00 0.00 0.00 41 1013.5
20260506172601 19 205 1.6 6.4 0.00 0.00 0.00 44 1013.5
20260506172101 17 151 1.6 9.7 0.00 0.00 0.00 47 1013.5
20260506171501 17 117 3.2 9.7 0.00 0.00 0.00 47 1013.5
20260506171011 18 207 3.2 8.0 0.00 0.00 0.00 45 1013.5
20260506170504 17 195 3.2 6.4 0.00 0.00 0.00 45 1013.6
20260506170001 17 191 1.6 8.0 0.00 0.00 0.00 44 1013.5
20260506165604 16 104 4.8 8.0 0.00 0.00 0.00 46 1013.6
20260506165103 16 145 3.2 9.7 0.00 0.00 0.00 45 1013.5
20260506164601 16 123 4.8 9.7 0.00 0.00 0.00 46 1013.5
20260506163506 16 132 4.8 11.3 0.00 0.00 0.00 47 1013.4
20260506163006 15 117 3.2 11.3 0.00 0.00 0.00 49 1013.4
20260506162508 15 127 3.2 8.0 0.00 0.00 0.00 46 1013.4
20260506162001 15 157 4.8 8.0 0.00 0.00 0.00 46 1013.5
20260506161602 15 149 3.2 8.0 0.00 0.00 0.00 51 1013.5
20260506161104 15 111 3.2 9.7 0.00 0.00 0.00 50 1013.6
20260506160602 15 119 4.8 9.7 0.00 0.00 0.00 46 1013.7
20260506160002 14 109 4.8 11.3 0.00 0.00 0.00 48 1013.8
20260506155601 15 107 4.8 11.3 0.00 0.00 0.00 50 1013.8
20260506155001 15 182 4.8 11.3 0.00 0.00 0.00 48 1013.9
20260506154514 14 64 3.2 12.9 0.00 0.00 0.00 50 1013.9
20260506154102 14 104 6.4 12.9 0.00 0.00 0.00 48 1013.9
20260506153502 13 133 4.8 14.5 0.00 0.00 0.00 52 1013.9
20260506153001 13 144 3.2 14.5 0.00 0.00 0.00 52 1013.9
20260506152501 13 129 3.2 11.3 0.00 0.00 0.00 52 1013.9
20260506152104 13 96 3.2 9.7 0.00 0.00 0.00 50 1014.0
20260506151502 13 111 4.8 9.7 0.00 0.00 0.00 50 1014.1
20260506151101 13 123 3.2 11.3 0.00 0.00 0.00 49 1014.0
20260506150603 13 360 4.8 11.3 0.00 0.00 0.00 49 1014.0
20260506150007 13 142 4.8 6.4 0.00 0.00 0.00 48 1013.9
20260506145504 13 118 1.6 4.8 0.00 0.00 0.00 49 1013.9
20260506145103 13 145 1.6 3.2 0.00 0.00 0.00 52 1013.9
20260506144508 13 103 0.0 3.2 0.00 0.00 0.00 52 1013.9
20260506144103 13 20 0.0 0.0 0.00 0.00 0.00 53 1013.9
20260506143601 12 351 0.0 0.0 0.00 0.00 0.00 63 1014.0
20260506143102 12 351 0.0 0.0 0.00 0.00 0.00 62 1014.0
20260506142606 11 351 0.0 0.0 0.00 0.00 0.00 67 1014.0
20260506142003 10 351 0.0 0.0 0.00 0.00 0.00 74 1014.0
20260506141602 9 351 0.0 0.0 0.00 0.00 0.00 76 1014.1
20260506141101 8 351 0.0 0.0 0.00 0.00 0.00 78 1014.0
20260506140602 8 351 0.0 0.0 0.00 0.00 0.00 78 1014.0
20260506140001 7 360 0.0 0.0 0.00 0.00 0.00 80 1014.1
20260506135501 7 351 0.0 0.0 0.00 0.00 0.00 83 1014.0
20260506135001 6 351 0.0 0.0 0.00 0.00 0.00 84 1014.1
20260506134502 6 351 0.0 0.0 0.00 0.00 0.00 85 1014.1
20260506134001 5 351 0.0 0.0 0.00 0.00 0.00 87 1014.1
20260506133602 5 351 0.0 0.0 0.00 0.00 0.00 87 1014.0
20260506133004 4 351 0.0 0.0 0.00 0.00 0.00 88 1013.9
20260506132503 4 351 0.0 0.0 0.00 0.00 0.00 89 1013.7
20260506132002 3 351 0.0 0.0 0.00 0.00 0.00 90 1013.7
20260506131501 3 351 0.0 0.0 0.00 0.00 0.00 90 1013.7
20260506131002 3 351 0.0 0.0 0.00 0.00 0.00 90 1013.7
20260506130601 3 351 0.0 0.0 0.00 0.00 0.00 90 1013.7
20260506125501 2 351 0.0 0.0 0.00 0.00 0.00 90 1013.6
20260506125101 2 351 0.0 0.0 0.00 0.00 0.00 90 1013.6
20260506124603 2 351 0.0 0.0 0.00 0.00 0.00 90 1013.6
20260506124101 2 351 0.0 0.0 0.00 0.00 0.00 90 1013.6
20260506123606 2 351 0.0 0.0 0.00 0.00 0.00 90 1013.5
20260506123005 2 351 0.0 0.0 0.00 0.00 0.00 90 1013.4
20260506122504 2 351 0.0 0.0 0.00 0.00 0.00 90 1013.5
20260506122101 2 351 0.0 0.0 0.00 0.00 0.00 90 1013.4
20260506121506 2 351 0.0 0.0 0.00 0.00 0.00 90 1013.4
20260506121003 2 351 0.0 0.0 0.00 0.00 0.00 90 1013.3
20260506120603 2 351 0.0 0.0 0.00 0.00 0.00 89 1013.4
20260506120104 3 351 0.0 0.0 0.00 0.00 0.00 90 1013.3
20260506115603 3 351 0.0 0.0 0.00 0.00 0.00 90 1013.2
20260506115001 3 351 0.0 0.0 0.00 0.00 0.00 89 1013.2
20260506114601 3 351 0.0 0.0 0.00 0.00 0.00 89 1013.1
20260506114002 3 351 0.0 0.0 0.00 0.00 0.00 89 1013.1
20260506113502 3 351 0.0 0.0 0.00 0.00 0.00 89 1013.0
20260506113102 3 351 0.0 0.0 0.00 0.00 0.00 89 1013.1
20260506112604 3 351 0.0 0.0 0.00 0.00 0.00 89 1013.1
20260506112006 3 351 0.0 0.0 0.00 0.00 0.00 89 1013.1
20260506111601 3 351 0.0 0.0 0.00 0.00 0.00 89 1013.1
20260506111102 3 351 0.0 0.0 0.00 0.00 0.00 89 1013.1
20260506110602 3 351 0.0 0.0 0.00 0.00 0.00 89 1013.0
20260506110008 3 351 0.0 0.0 0.00 0.00 0.00 89 1012.9
20260506105504 3 351 0.0 0.0 0.00 0.00 0.00 89 1012.9
20260506105007 3 351 0.0 0.0 0.00 0.00 0.00 89 1012.9
20260506104501 3 351 0.0 0.0 0.00 0.00 0.00 89 1012.8
20260506104001 3 351 0.0 0.0 0.00 0.00 0.00 89 1012.9
20260506103501 3 351 0.0 0.0 0.00 0.00 0.00 88 1012.8
20260506103001 3 351 0.0 0.0 0.00 0.00 0.00 88 1012.8
20260506102502 3 351 0.0 0.0 0.00 0.00 0.00 88 1012.8
20260506102103 3 351 0.0 0.0 0.00 0.00 0.00 88 1012.8
20260506101601 3 351 0.0 1.6 0.00 0.00 0.00 88 1012.8
20260506101005 3 351 0.0 1.6 0.00 0.00 0.00 87 1012.7
20260506100506 3 351 0.0 3.2 0.00 0.00 0.00 87 1012.7
20260506100002 3 351 0.0 3.2 0.00 0.00 0.00 88 1012.8
20260506095502 3 351 0.0 1.6 0.00 0.00 0.00 87 1012.7
20260506095002 4 351 0.0 3.2 0.00 0.00 0.00 87 1012.6
20260506094624 4 351 0.0 3.2 0.00 0.00 0.00 87 1012.6
20260506094002 4 351 0.0 3.2 0.00 0.00 0.00 87 1012.6
20260506093501 4 351 0.0 3.2 0.00 0.00 0.00 87 1012.6
20260506093102 4 351 0.0 3.2 0.00 0.00 0.00 87 1012.6
20260506092601 4 351 0.0 1.6 0.00 0.00 0.00 87 1012.6
20260506092003 4 351 0.0 3.2 0.00 0.00 0.00 87 1012.6
20260506091507 4 351 1.6 3.2 0.00 0.00 0.00 87 1012.5
20260506091002 4 351 0.0 3.2 0.00 0.00 0.00 86 1012.5
20260506090601 4 351 0.0 3.2 0.00 0.00 0.00 86 1012.7
20260506085503 5 351 1.6 3.2 0.00 0.00 0.00 85 1012.6
20260506085002 5 355 0.0 3.2 0.00 0.00 0.00 85 1012.6
20260506084506 5 355 1.6 3.2 0.00 0.00 0.00 86 1012.5
20260506084103 5 5 1.6 3.2 0.00 0.00 0.00 86 1012.6
20260506083502 5 5 1.6 3.2 0.00 0.00 0.00 86 1012.6
20260506083110 5 5 0.0 3.2 0.00 0.00 0.00 85 1012.6
20260506082602 5 5 1.6 3.2 0.00 0.00 0.00 85 1012.5